[[{"header":{"parameterUnit":"m.s-1","parameterCategory":1,"la1":30.2991,"la2":30.254,"lo1":-89.0895,"lo2":-89.0444,"dy":0.0017,"dx":0.0017,"nx":28,"ny":28,"refTime":"2025-07-25T03:00:00:Z","depth":0,"parameterNumber":2,"parameterNumberName":"U-component_of_WINDS"},"data":[0,0,0,0,0,0,0,0,0,0,0,0,0,0,0,0,0,0,0,0,0,0,0,0,0,0,0,0,0,0,0,0,0,0,0,0,0,0,0,0,0,0,0,0,0,0,0,0,0,0,0,0,0,0,0,0,0,0,-2.227,-2.2271,0,-2.2424,-2.2426,-2.2428,-2.2483,-2.2482,-2.2482,-2.2481,-2.264,-2.2645,-2.265,0,0,0,0,0,0,0,0,0,0,0,0,0,-2.2023,-2.2027,-2.227,-2.2272,-2.2273,-2.2424,-2.2426,-2.2428,-2.2483,-2.2482,-2.2481,-2.2481,-2.2639,-2.2644,-2.265,0,0,0,0,0,0,0,0,0,0,0,0,0,-2.2149,-2.2029,-2.2269,-2.2319,-2.2325,-2.2424,-2.2426,-2.2429,-2.2483,-2.2482,-2.2481,-2.2481,-2.2637,-2.2644,-2.2651,-2.2712,0,0,-2.2673,-2.2676,0,0,0,0,0,0,0,0,-2.2142,-2.2158,-2.231,-2.2316,-2.2322,-2.2433,-2.2398,-2.2524,-2.2483,-2.2423,-2.2481,-2.248,-2.2572,-2.2585,-2.2616,-2.272,-2.2727,-2.2674,-2.2678,-2.2681,-2.2683,0,0,0,0,0,0,0,-2.2133,-2.2152,-2.2331,-2.2312,-2.232,-2.2334,-2.2351,-2.2422,-2.2501,-2.2428,-2.2432,-2.245,-2.2576,-2.2609,-2.262,-2.2729,-2.2673,-2.268,-2.2684,-2.2687,-2.2892,-2.2893,0,0,0,0,0,0,-2.2116,-2.2144,-2.2326,-2.2336,-2.2228,-2.2339,-2.2358,-2.2399,-2.25,-2.2515,-2.2451,-2.2452,-2.2597,-2.2611,-2.2626,-2.2704,-2.2681,-2.2688,-2.2692,-2.2891,-2.2892,-2.2894,0,0,0,0,0,0,-2.211,-2.2132,-2.232,-2.2241,-2.2266,-2.2344,-2.2389,-2.2402,-2.2435,-2.2517,-2.2531,-2.247,-2.2597,-2.2616,-2.2691,-2.271,-2.2691,-2.2697,-2.289,-2.2891,-2.2893,-2.2861,0,0,0,0,0,0,-2.2103,-2.2129,-2.2153,-2.2241,-2.227,-2.2381,-2.2391,-2.2406,-2.2447,-2.2451,-2.2539,-2.2552,-2.2597,-2.2679,-2.2698,-2.272,-2.2703,-2.2888,-2.289,-2.2892,-2.2861,-2.2862,-2.2863,0,0,0,0,0,-2.2094,-2.2138,-2.2154,-2.2175,-2.2301,-2.2382,-2.2399,-2.245,-2.2449,-2.2473,-2.2526,-2.255,-2.2706,-2.2687,-2.2708,-2.2732,-2.2887,-2.289,-2.2892,-2.2861,-2.2862,-2.2863,0,0,0,0,0,0,-2.205,-2.215,-2.2169,-2.2243,-2.2303,-2.2391,-2.2424,-2.2449,-2.2512,-2.2512,-2.2573,-2.2592,-2.2663,-2.2705,-2.2682,-2.2797,-2.2798,-2.2805,-2.2767,-2.2768,-2.2769,-2.2757,-2.2709,0,0,0,0,0,-2.2049,-2.2106,-2.2191,-2.2248,-2.2277,-2.2345,-2.2382,-2.2416,-2.2482,-2.2508,-2.2566,-2.2629,-2.2693,-2.2733,-2.2796,-2.2868,-2.2888,-2.2895,-2.2896,-2.2896,-2.2901,-2.2943,-2.2947,-2.2902,-2.2902,-2.2902,0,0,-2.2047,-2.2109,-2.2141,-2.224,-2.2291,-2.235,-2.2366,-2.2427,-2.2471,-2.2518,-2.2592,-2.2637,-2.2711,-2.2785,-2.282,-2.2823,-2.2919,-2.29,-2.2899,-2.2904,-2.2946,-2.295,-2.2954,-2.2904,-2.2904,-2.2903,0,0,-2.2073,-2.2126,-2.2179,-2.223,-2.2307,-2.2352,-2.2365,-2.245,-2.2481,-2.2556,-2.2593,-2.2646,-2.2754,-2.2806,-2.2846,-2.2893,-2.2917,-2.2912,-2.2916,-2.2955,-2.2959,-2.2962,-2.2979,-2.2984,-2.2917,-2.2917,-2.2917,0,-2.2061,-2.2149,-2.2203,-2.2262,-2.2305,-2.2349,-2.2404,-2.2451,-2.2545,-2.2574,-2.2575,-2.2712,-2.2765,-2.2852,-2.2863,-2.2895,-2.2911,-2.2901,-2.2954,-2.2958,-2.2962,-2.2978,-2.2984,-2.2916,-2.2916,-2.2916,-2.2916,0,-2.2131,-2.2192,-2.2225,-2.2314,-2.2361,-2.2418,-2.248,-2.2522,-2.2552,-2.2597,-2.2674,-2.274,-2.2816,-2.284,-2.287,-2.2931,-2.293,-2.2942,-2.2943,-2.2964,-2.298,-2.2987,-2.2914,-2.2914,-2.2915,-2.2915,0,0,-2.2132,-2.2251,-2.2262,-2.2303,-2.2392,-2.2441,-2.25,-2.2575,-2.2609,-2.2673,-2.2724,-2.2815,-2.2826,-2.2872,-2.2909,-2.2944,-2.2977,-2.2952,-2.2955,-2.2954,-2.3048,-2.3037,-2.3044,-2.2994,-2.2995,-2.2996,-2.3041,0,-2.2169,-2.2275,-2.2326,-2.241,-2.2467,-2.2512,-2.2563,-2.2624,-2.2668,-2.2723,-2.2773,-2.2836,-2.2847,-2.2875,-2.2911,-2.2965,-2.2996,-2.2962,-2.3042,-2.3044,-2.302,-2.3052,-2.3042,-2.3081,-2.3048,-2.3049,-2.305,0,-2.2226,-2.2289,-2.2379,-2.2462,-2.2488,-2.2533,-2.2606,-2.2659,-2.2729,-2.2759,-2.281,-2.2846,-2.291,-2.2908,-2.2998,-2.2973,-2.3009,-2.304,-2.3043,-2.3052,-2.3047,-2.3061,-2.3095,-2.31,-2.3061,-2.306,-2.3059,0,-2.2217,-2.2325,-2.2393,-2.2427,-2.2525,-2.2556,-2.2599,-2.2668,-2.271,-2.2775,-2.2803,-2.2874,-2.2913,-2.2967,-2.3021,-2.3015,-2.3106,-2.3108,-2.3132,-2.3131,-2.3148,-2.3146,-2.3187,-2.3173,-2.3173,-2.3173,-2.3172,0,-2.2253,-2.2306,-2.239,-2.2432,-2.2493,-2.2551,-2.261,-2.2656,-2.2718,-2.2769,-2.2813,-2.286,-2.2929,-2.2986,-2.3029,-2.3097,-2.3114,-2.314,-2.3151,-2.3136,-2.3132,-2.3159,-2.3158,-2.3174,-2.3174,-2.3173,-2.3173,0,-2.2253,-2.2312,-2.2388,-2.2475,-2.2498,-2.254,-2.2614,-2.2657,-2.2704,-2.2769,-2.2787,-2.2861,-2.293,-2.299,-2.3081,-2.311,-2.3179,-2.3193,-2.3155,-2.3161,-2.3181,-2.3178,-2.324,-2.3251,-2.323,-2.323,-2.323,0,-2.2271,-2.2313,-2.2405,-2.2442,-2.2484,-2.2544,-2.2587,-2.2647,-2.269,-2.2774,-2.2806,-2.2878,-2.2939,-2.3047,-2.3109,-2.3179,-2.3194,-2.3211,-2.3205,-2.3189,-2.3194,-2.319,-2.3195,-2.3211,-2.3211,-2.3211,-2.3211,0,-2.2298,-2.2325,-2.2385,-2.2456,-2.2506,-2.2565,-2.2625,-2.2653,-2.2724,-2.2771,-2.2842,-2.2889,-2.2982,-2.3053,-2.3131,-2.3175,-2.3205,-2.3212,-2.3222,-2.3206,-2.3182,-2.3195,-2.3155,-2.321,-2.321,-2.321,-2.321,-2.321,-2.2308,-2.2347,-2.2417,-2.2483,-2.2535,-2.259,-2.2634,-2.2686,-2.2746,-2.2826,-2.2858,-2.2931,-2.3001,-2.3107,-2.3152,-2.321,-2.3215,-2.3228,-2.3231,-2.3234,-2.3231,-2.3174,-2.3224,-2.3224,-2.3224,-2.3225,-2.3225,0,-2.2336,-2.2383,-2.2443,-2.2526,-2.2578,-2.2601,-2.2669,-2.2711,-2.2774,-2.2837,-2.2896,-2.2978,-2.3047,-2.3115,-2.3188,-2.3221,-2.3237,-2.3238,-2.3236,-2.3246,-2.3223,-2.3207,-2.3225,-2.3225,-2.3225,-2.3225,-2.3224,-2.3224,-2.2356,-2.2424,-2.2459,-2.2553,-2.2601,-2.2672,-2.2708,-2.276,-2.281,-2.2899,-2.2957,-2.3001,-2.3066,-2.3144,-2.3209,-2.3227,-2.3252,-2.325,-2.3271,-2.3248,-2.3247,-2.3247,-2.3232,-2.3255,-2.3255,-2.329,-2.329,-2.329]},{"header":{"parameterUnit":"m.s-1","parameterCategory":1,"la1":30.2991,"la2":30.254,"lo1":-89.0895,"lo2":-89.0444,"dy":0.0017,"dx":0.0017,"nx":28,"ny":28,"refTime":"2025-07-25T03:00:00:Z","depth":0,"parameterNumber":3,"parameterNumberName":"V-component_of_WINDS"},"data":[0,0,0,0,0,0,0,0,0,0,0,0,0,0,0,0,0,0,0,0,0,0,0,0,0,0,0,0,0,0,0,0,0,0,0,0,0,0,0,0,0,0,0,0,0,0,0,0,0,0,0,0,0,0,0,0,0,0,5.4478,5.4479,0,5.4544,5.4545,5.4546,5.4484,5.4482,5.4479,5.4477,5.4543,5.4547,5.4551,0,0,0,0,0,0,0,0,0,0,0,0,0,5.4294,5.4298,5.4478,5.4479,5.448,5.4544,5.4545,5.4546,5.4485,5.4482,5.4479,5.4476,5.4541,5.4546,5.4551,0,0,0,0,0,0,0,0,0,0,0,0,0,5.4369,5.4299,5.4478,5.4457,5.4456,5.4544,5.4545,5.4546,5.4485,5.4482,5.4478,5.4475,5.454,5.4546,5.4552,5.4663,0,0,5.457,5.4573,0,0,0,0,0,0,0,0,5.4365,5.4375,5.4459,5.4459,5.4457,5.4502,5.4504,5.4585,5.4486,5.4474,5.4477,5.4473,5.4532,5.4539,5.4559,5.4666,5.4669,5.4571,5.4574,5.4577,5.4579,0,0,0,0,0,0,0,5.4359,5.4372,5.4504,5.4461,5.4459,5.4443,5.4449,5.4519,5.4523,5.4475,5.4471,5.4479,5.4531,5.4553,5.456,5.467,5.4571,5.4576,5.458,5.4582,5.4868,5.4872,0,0,0,0,0,0,5.4357,5.4368,5.4502,5.4506,5.4401,5.4449,5.4456,5.4492,5.4522,5.4523,5.4482,5.4476,5.4545,5.4553,5.4562,5.4692,5.4577,5.4583,5.4586,5.4864,5.4869,5.4873,0,0,0,0,0,0,5.4353,5.437,5.4499,5.4436,5.4451,5.4456,5.4496,5.4495,5.4517,5.4528,5.4528,5.4505,5.4542,5.4554,5.4638,5.4693,5.4585,5.4591,5.486,5.4866,5.4871,5.4954,0,0,0,0,0,0,5.4348,5.4369,5.4412,5.4438,5.4455,5.4575,5.45,5.4499,5.4528,5.4521,5.4549,5.455,5.454,5.4629,5.4644,5.47,5.4596,5.4855,5.4862,5.4869,5.4946,5.4962,5.4975,0,0,0,0,0,5.4342,5.4433,5.4415,5.4431,5.451,5.4579,5.4588,5.4576,5.4533,5.4576,5.4582,5.4549,5.4685,5.4638,5.4654,5.4713,5.4851,5.486,5.4869,5.4939,5.4959,5.4975,0,0,0,0,0,0,5.4414,5.4436,5.4416,5.4519,5.4547,5.4568,5.4622,5.4597,5.4638,5.4629,5.4611,5.4618,5.4706,5.4718,5.4666,5.4821,5.4761,5.4774,5.4809,5.4828,5.4842,5.4836,5.4601,0,0,0,0,0,5.4442,5.4497,5.4513,5.4602,5.4617,5.4618,5.4647,5.4635,5.4663,5.4675,5.4688,5.4716,5.4764,5.4797,5.4843,5.4948,5.4952,5.4996,5.5011,5.5023,5.5033,5.5086,5.5105,5.4903,5.4902,5.4902,0,0,5.45,5.4519,5.4555,5.4617,5.4638,5.4693,5.4628,5.4691,5.4731,5.4684,5.4764,5.4774,5.4804,5.4899,5.4941,5.4911,5.509,5.5034,5.5043,5.5047,5.5097,5.5116,5.5133,5.4909,5.4908,5.4907,0,0,5.4633,5.4655,5.4729,5.4751,5.4783,5.4782,5.48,5.4825,5.483,5.4909,5.4874,5.4922,5.5008,5.5029,5.5052,5.5191,5.5161,5.5207,5.5282,5.5334,5.535,5.5364,5.541,5.5428,5.5217,5.5218,5.5218,0,5.4701,5.4785,5.4771,5.4835,5.4862,5.4822,5.4896,5.4918,5.4963,5.4982,5.4948,5.5052,5.507,5.5167,5.5201,5.5222,5.524,5.5202,5.5349,5.5363,5.5376,5.542,5.5438,5.5223,5.5222,5.5222,5.5221,0,5.4865,5.4923,5.4979,5.5023,5.5056,5.5125,5.512,5.5155,5.514,5.5142,5.5221,5.5242,5.5289,5.5312,5.5298,5.5406,5.5386,5.5352,5.5291,5.54,5.5441,5.5458,5.523,5.5228,5.5227,5.5225,0,0,5.5046,5.5079,5.51,5.5118,5.515,5.5193,5.526,5.5306,5.5335,5.5368,5.542,5.5493,5.546,5.5485,5.5473,5.5519,5.5624,5.5478,5.5478,5.5502,5.5741,5.5765,5.5785,5.5606,5.5609,5.5611,5.5737,0,5.5177,5.5292,5.528,5.5388,5.544,5.5402,5.5459,5.5484,5.5487,5.553,5.5534,5.5584,5.5539,5.5553,5.5597,5.5602,5.5671,5.5593,5.5652,5.5654,5.5643,5.5807,5.5833,5.5951,5.5754,5.5757,5.5759,0,5.5347,5.5384,5.5498,5.5518,5.5539,5.5591,5.563,5.5673,5.5699,5.5698,5.5726,5.5705,5.5769,5.5709,5.5796,5.5742,5.5766,5.5772,5.5776,5.5779,5.5711,5.5811,5.5989,5.6006,5.5784,5.5782,5.578,0,5.5463,5.5542,5.5619,5.5636,5.5663,5.5699,5.5712,5.5735,5.5762,5.5797,5.5814,5.5857,5.5879,5.5912,5.5902,5.586,5.599,5.593,5.5989,5.5989,5.6016,5.6014,5.6197,5.6036,5.6036,5.6036,5.6035,0,5.561,5.568,5.5671,5.5718,5.5794,5.5779,5.5855,5.5863,5.5883,5.5929,5.5901,5.5945,5.5931,5.5974,5.5967,5.6038,5.6049,5.6048,5.6045,5.6049,5.6049,5.6063,5.6053,5.604,5.6039,5.6038,5.6038,0,5.5752,5.575,5.583,5.5848,5.5855,5.591,5.5924,5.5968,5.5968,5.6028,5.6041,5.6041,5.609,5.6085,5.614,5.6135,5.6222,5.6211,5.6213,5.6209,5.6267,5.6261,5.6463,5.6487,5.6314,5.6316,5.6317,0,5.5845,5.5898,5.5921,5.595,5.5965,5.6013,5.604,5.6027,5.6057,5.6089,5.6128,5.6174,5.621,5.629,5.6295,5.6336,5.6323,5.6391,5.6329,5.6331,5.632,5.6316,5.632,5.6403,5.6405,5.6406,5.6408,0,5.6009,5.6004,5.6045,5.6085,5.6119,5.615,5.6178,5.6203,5.6192,5.6227,5.6276,5.6304,5.6359,5.6404,5.6443,5.6455,5.6429,5.6428,5.6443,5.6446,5.6444,5.6443,5.6243,5.6422,5.6421,5.642,5.6419,5.6418,5.6127,5.6171,5.6193,5.6239,5.6258,5.6284,5.6325,5.633,5.6371,5.6414,5.6404,5.6459,5.6481,5.653,5.6546,5.6588,5.6563,5.6586,5.6591,5.6596,5.6601,5.644,5.6595,5.6595,5.6594,5.6594,5.6594,0,5.6286,5.6298,5.6341,5.638,5.6415,5.6388,5.6417,5.6448,5.6496,5.652,5.6555,5.661,5.6654,5.6662,5.6702,5.6734,5.6723,5.6745,5.6741,5.6744,5.6623,5.6604,5.6753,5.6753,5.6753,5.6753,5.6753,5.6753,5.6373,5.6444,5.6442,5.6521,5.6533,5.6586,5.6604,5.6627,5.6645,5.6707,5.6743,5.6748,5.6764,5.6806,5.6843,5.6844,5.686,5.6886,5.6882,5.6769,5.6753,5.6737,5.6719,5.689,5.689,5.6998,5.6999,5.7]}]]